Regional Weather Roundup
Issued by NWS Little Rock, AR

Home | Current Version | Previous Version | Text Only | Print | Product List | Glossary Off
Versions: 1 2 3 4 5 6 7 8 9 10 11 12 13 14 15 16 17 18 19 20 21 22 23 24 25 26 27 28 29 30 31 32 33 34 35 36 37 38 39 40 41 42 43 44 45 46 47 48 49 50

791
ASUS44 KLZK 252105
RWRLZK

WEATHER ROUNDUP FOR ARKANSAS
NATIONAL WEATHER SERVICE LITTLE ROCK AR
400 PM CDT THU AUG 25 2016

NOTE: "FAIR" INDICATES FEW OR NO CLOUDS BELOW 12,000 FEET WITH NO
SIGNIFICANT WEATHER AND/OR OBSTRUCTIONS TO VISIBILITY.

ARZ001-003-010-029-252200-
NORTHWEST ARKANSAS

CITY           SKY/WX    TMP DP  RH WIND       PRES   REMARKS
FAYETTEVILLE   MOSUNNY   90  71  53 S7        30.06F HX  96
FORT SMITH     MOSUNNY   94  68  42 E3        30.00F HX  98
HARRISON       CLOUDY    90  67  46 CALM      30.09F HX  93
BENTONVILLE    MOSUNNY   91  63  38 S6        30.06F HX  92
ROGERS         MOSUNNY   91  67  44 S5        30.06F HX  94
SILOAM SPGS    MOSUNNY   93  64  38 S8G17       N/A  HX  95
HIGHFILL       SUNNY     93  69  45 VRB7      30.04F HX  98
SPRINGDALE     MOSUNNY   91  68  46 S5        30.07F HX  95
$$

ARZ004-005-016-252200-
NORTH CENTRAL ARKANSAS

CITY           SKY/WX    TMP DP  RH WIND       PRES   REMARKS
BATESVILLE     CLOUDY    91  73  55 S5        30.05S HX 100
FLIPPIN        SUNNY     90  70  51 CALM      30.04F HX  95
MTN HOME       SUNNY     89  71  55 W3        30.07F HX  95
$$

ARZ040-041-252200-
WEST CENTRAL ARKANSAS

CITY           SKY/WX    TMP DP  RH WIND       PRES   REMARKS
MENA           MOSUNNY   91  75  59 CALM      30.06S HX 102
MOUNT IDA      CLOUDY    83  73  72 SE9       30.04F HX  89
$$

ARZ009-017-025-026-028-252200-
NORTHEAST ARKANSAS

CITY           SKY/WX    TMP DP  RH WIND       PRES   REMARKS
CORNING          N/A     91  75  59 SE5       30.05F HX 102
JONESBORO      CLOUDY    92  72  51 VRB3      30.04F HX  99
NEWPORT        MOSUNNY   91  76  61 S6        30.04F HX 103
WALNUT RIDGE   MOSUNNY   91  73  55 E5        30.03F HX 100
BLYTHEVILLE    CLOUDY    92  75  57 CALM      30.06F HX 103
NW BLYTHEVILLE PTSUNNY   95  72  46 CALM      30.05F HX 103
$$

ARZ022-023-033-042-044-252200-
CENTRAL ARKANSAS

CITY           SKY/WX    TMP DP  RH WIND       PRES   REMARKS
LITTLE ROCK    CLOUDY    83  77  82 S3        30.06F HX  92
N LITTLE ROCK    N/A     82  75  78 S3        30.03F HX  88
JACKSONVILLE   LGT RAIN  79  73  83 SE3       30.05F
SEARCY         CLOUDY    87  79  76 SW3       30.06S HX 101
HOT SPRINGS    LGT RAIN  77  70  79 E6        30.06F
RUSSELLVILLE   CLOUDY    77  72  84 E5        30.04F
$$

ARZ036-252200-
EAST ARKANSAS

CITY           SKY/WX    TMP DP  RH WIND       PRES   REMARKS
WEST MEMPHIS   MOSUNNY   92  75  57 VRB6      30.03F HX 103
$$

ARZ050-053-066-070-073-252200-
SOUTHWEST ARKANSAS

CITY           SKY/WX    TMP DP  RH WIND       PRES   REMARKS
ARKADELPHIA    FAIR      76  74  93 CALM      30.05F
CAMDEN         RAIN      77  72  83 NE9G17    30.06R
TEXARKANA      TSTM      74  71  91 VRB6G22   30.06R FOG
EL DORADO      TSTM      74  73  97 NW23      30.04R VSB 1/2
DE QUEEN       CLOUDY    92  75  57 VRB3      30.00F HX 103
$$

ARZ056-057-069-252200-
SOUTHEAST ARKANSAS

CITY           SKY/WX    TMP DP  RH WIND       PRES   REMARKS
PINE BLUFF     LGT RAIN  77  74  90 NW9       30.06F
STUTTGART      CLOUDY    82  72  69 CALM      30.06F HX  87
MONTICELLO     MOSUNNY   95  75  52 E6        30.02F HX 107

$$






USA.gov is the U.S. government's official web portal to all federal, state and local government web resources and services.